Probability
0 0 0 0 0 0 0 0 0 0 0 0 1 2 3 3 4 11 20 30 39 45 50 51 49 52 58 59 53 48 41 35 30 26 21 17 13 10 9 10 11 9 6 5
0 0 0 0 0 0 0 0 0 0 0 0 0 2 3 3 4 8 17 26 34 45 55 58 57 56 59 62 59 53 45 38 32 28 24 20 16 13 12 14 14 11 8 7
0 0 0 0 0 0 0 0 0 0 0 0 0 2 4 4 4 6 12 20 27 41 57 64 63 60 60 63 64 59 51 42 35 30 25 21 18 16 16 18 18 15 11 9
0 0 0 0 0 0 0 0 0 0 0 0 1 2 4 5 5 5 9 15 22 36 54 64 64 61 58 59 63 64 58 47 37 31 26 21 18 16 17 18 18 16 13 10
0 0 0 0 0 0 0 0 0 0 0 0 1 3 5 5 5 6 8 12 18 32 48 60 62 59 55 54 59 64 63 53 42 34 28 23 17 14 16 17 17 15 13 12
0 0 0 0 0 0 0 0 0 0 0 0 0 2 3 4 5 7 9 10 16 29 44 53 57 57 54 52 54 58 62 57 48 39 33 26 19 14 15 16 17 15 14 15
0 0 0 0 0 0 0 0 0 0 0 0 0 1 1 2 5 7 8 9 17 31 41 48 53 56 54 51 51 54 59 58 51 43 37 32 26 19 18 19 18 16 15 14
0 0 0 0 0 0 0 0 0 0 0 0 1 2 1 2 5 6 7 10 20 31 39 44 49 53 52 48 47 53 58 58 52 47 41 36 31 25 22 24 22 19 15 12
0 0 0 0 0 0 0 0 0 0 0 0 2 3 3 3 5 5 7 12 20 29 36 39 42 45 47 46 47 52 59 59 53 48 43 36 32 28 26 28 27 23 16 12
0 0 0 0 0 0 0 0 0 0 0 0 1 3 3 3 3 5 9 14 20 25 31 34 36 38 42 47 49 52 58 59 52 46 41 36 34 31 30 31 30 27 20 16
0 0 0 0 0 0 0 0 0 0 0 0 1 2 2 2 2 5 11 19 24 26 28 32 35 37 41 46 49 54 59 59 53 47 44 41 38 36 34 32 31 28 23 20
0 0 0 0 0 0 0 0 0 0 0 0 1 1 1 1 2 7 16 25 29 30 31 34 38 41 43 46 50 54 58 58 54 50 49 46 41 37 35 33 30 27 24 22
0 0 0 0 0 0 0 0 0 0 0 0 1 2 3 3 5 12 23 32 35 37 38 42 45 47 47 49 52 54 55 56 53 51 51 48 43 39 36 34 32 27 23 20
0 0 0 0 0 0 0 0 0 0 0 0 2 5 6 7 10 17 29 37 42 45 49 53 55 53 53 53 54 54 54 56 54 52 52 50 46 42 38 36 34 29 24 20
0 0 0 0 0 0 0 0 0 0 0 0 3 7 10 13 18 25 34 43 50 54 58 62 62 60 57 56 56 56 57 59 57 54 53 52 48 43 37 34 32 30 26 23
1 2 1 0 0 0 0 0 0 0 0 1 5 10 16 23 31 40 46 50 56 61 65 67 68 66 63 60 59 59 60 60 58 55 52 51 47 40 33 30 29 27 26 25
6 7 4 0 0 0 0 0 0 1 2 4 8 14 21 31 42 52 57 57 59 65 70 73 73 71 68 64 62 59 57 57 55 52 49 48 45 36 28 25 24 23 22 22
12 16 9 0 0 0 0 0 1 3 5 8 12 18 25 35 44 54 62 64 64 67 71 74 73 71 69 67 63 57 54 53 51 48 46 45 41 34 26 22 21 20 19 18
16 22 12 0 0 0 0 0 1 3 6 10 15 23 30 35 42 55 66 71 70 70 71 71 69 68 67 67 64 58 54 52 50 47 46 44 39 31 26 23 21 20 19 19
13 18 10 0 0 0 1 2 1 3 9 15 22 32 40 43 49 61 71 73 72 70 71 70 67 68 69 68 65 60 57 55 52 49 47 43 37 30 27 25 22 20 20 20
6 8 6 1 0 2 5 7 10 17 26 30 35 44 54 61 66 71 74 72 68 67 69 68 68 69 69 68 66 62 60 58 54 50 47 42 35 28 25 24 21 19 19 19
2 3 5 5 8 15 22 26 32 43 49 48 49 55 64 73 78 77 74 71 67 66 67 68 69 68 67 67 66 64 62 60 55 49 43 38 32 26 23 23 21 19 19 19
5 7 11 16 25 36 44 50 54 58 57 54 55 59 64 72 77 77 75 73 71 69 69 68 67 66 65 65 65 64 63 60 53 44 36 30 26 23 22 22 21 20 19 19
12 16 24 33 41 46 52 57 60 57 53 52 53 57 62 69 72 74 75 75 74 72 69 67 64 63 62 62 61 61 60 55 48 38 30 24 22 21 21 21 21 20 19 18
14 21 32 43 48 48 50 55 57 55 52 50 50 54 60 65 68 70 71 72 70 68 66 63 60 58 57 56 54 54 53 49 41 33 26 22 21 22 22 20 18 17 16 14
13 21 33 44 50 50 51 55 55 55 53 51 50 52 57 62 65 67 67 67 64 62 62 60 56 53 52 51 49 49 48 44 38 30 24 22 22 23 23 20 16 12 11 10
Wind_Speed
12 12 10 9 7 5 5 4 5 5 5 3 7 11 13 12 11 12 12 12 12 11 11 10 9 9 8 7 5 5 4 3 2 2 2 2 2 2 2 2 3 3 2 1
12 14 12 7 4 5 6 4 3 5 5 4 3 5 7 8 8 10 12 11 12 12 11 10 9 9 9 8 6 5 4 4 3 2 1 1 1 1 2 1 1 2 2 2
15 10 8 8 9 8 8 4 2 2 5 6 2 2 3 5 5 7 10 11 12 13 13 12 10 9 8 8 7 5 4 4 3 3 2 1 1 0 0 1 1 1 2 2
13 10 7 9 10 9 8 3 2 4 6 3 4 2 3 5 7 8 10 10 12 13 13 12 11 9 8 8 8 6 5 4 3 2 2 2 1 1 0 1 1 1 1 2
12 12 10 10 10 9 6 3 6 8 8 5 3 4 3 5 7 9 10 10 10 12 13 12 11 9 9 8 8 7 6 5 3 2 2 1 0 0 0 1 1 1 1 1
14 11 11 11 9 8 6 5 8 10 9 7 5 3 4 5 6 7 10 10 10 12 13 12 12 10 8 8 8 8 6 5 4 3 2 1 0 1 1 1 0 0 0 0
14 13 11 10 10 10 9 8 7 8 7 5 4 2 5 8 8 9 10 11 11 13 13 13 12 11 9 8 8 8 7 6 4 4 2 1 1 0 1 1 0 1 0 1
15 14 14 12 13 10 11 12 10 6 3 2 4 0 4 9 10 10 11 11 11 13 12 13 12 11 10 9 8 8 8 6 5 4 3 2 1 1 0 0 1 1 1 1
12 15 16 15 14 15 12 12 15 12 9 4 3 3 5 10 11 11 12 11 10 12 13 13 13 12 11 9 8 9 8 7 5 5 4 3 2 1 1 1 1 1 1 1
13 10 13 15 13 15 14 12 8 8 6 5 4 6 6 8 10 11 11 12 12 12 12 12 12 12 11 10 9 9 8 7 5 5 3 4 3 2 1 1 1 2 2 2
17 12 11 13 15 15 15 14 10 7 7 6 3 1 6 5 7 10 11 12 12 12 11 11 10 11 11 11 11 9 8 8 6 5 4 3 3 3 2 1 1 2 2 2
14 11 10 13 14 14 15 15 13 8 6 7 5 3 9 7 7 9 10 9 10 11 11 10 11 10 10 10 10 9 9 8 7 6 5 4 3 2 2 2 2 2 2 2
11 10 10 12 13 15 15 15 15 13 9 8 8 3 7 7 7 9 11 11 10 10 11 10 10 10 9 8 8 8 7 8 8 7 6 5 4 3 2 2 2 2 2 2
7 10 12 13 10 12 15 16 15 14 9 9 7 5 6 6 7 10 11 11 10 11 10 10 9 8 7 7 7 6 6 6 7 7 6 5 4 4 3 3 3 3 3 3
8 11 14 16 15 12 13 15 16 15 13 10 6 6 6 7 7 10 11 11 11 11 10 9 8 7 7 7 7 6 6 5 6 6 6 5 5 4 4 3 3 3 3 3
8 9 12 15 16 15 13 14 14 14 13 11 8 4 3 5 8 9 9 10 10 10 10 9 8 8 7 6 6 7 6 6 6 5 5 5 5 5 4 4 4 4 4 4
9 8 10 13 15 15 16 13 13 13 12 10 9 4 6 6 8 9 8 8 8 9 9 9 9 8 7 6 6 7 7 7 6 5 5 5 5 5 4 5 5 4 4 4
7 7 7 11 12 16 11 11 11 10 8 6 5 4 6 8 9 8 7 7 7 7 8 8 8 8 8 7 6 6 7 7 6 6 5 5 5 5 5 5 5 5 4 4
8 6 9 10 13 13 11 9 10 9 7 6 4 3 5 8 9 8 7 6 6 6 6 7 8 8 8 7 7 6 6 6 6 6 5 5 5 5 5 5 5 4 4 4
11 7 9 10 12 13 8 8 7 7 6 2 2 4 4 4 4 5 6 6 5 6 6 6 7 8 8 7 7 6 6 6 6 6 5 5 5 5 5 5 5 4 4 4
13 11 13 13 13 9 4 5 6 8 3 2 2 4 5 5 5 7 8 7 6 6 7 7 7 7 7 6 7 6 6 5 5 6 6 6 6 5 5 5 4 4 4 4
12 11 11 12 13 6 2 3 1 3 5 6 6 8 9 9 10 8 8 8 8 7 7 7 7 7 6 6 6 6 5 5 5 6 6 6 5 5 5 5 4 4 4 4
9 7 5 4 3 3 7 8 7 6 6 7 7 7 8 9 9 8 7 7 7 7 7 7 7 7 6 5 5 5 5 5 6 6 5 5 5 4 5 5 4 4 3 3
5 1 3 3 4 4 6 7 7 7 6 7 7 6 8 9 9 8 7 6 6 6 6 6 7 7 6 5 5 5 5 5 5 5 5 4 4 4 4 3 2 2 2 2
3 2 3 3 4 5 4 6 7 6 6 7 6 6 7 7 7 7 6 6 5 5 5 6 6 6 6 6 5 5 5 5 5 5 4 4 4 4 4 4 3 2 3 2
2 2 3 3 3 2 4 4 5 5 5 5 5 5 6 6 7 7 6 5 5 4 4 5 5 6 6 6 5 5 5 5 5 5 4 4 4 4 5 5 5 9 6 7
Wind_Direction
224 232 230 229 222 241 263 197 193 143 146 191 159 155 156 165 171 161 162 163 161 159 154 148 150 150 149 146 150 154 154 149 160 172 186 192 199 213 216 210 189 198 218 228
227 232 236 239 219 235 243 223 195 144 149 229 175 130 149 158 171 162 161 158 159 154 152 154 155 158 158 154 159 157 160 163 178 174 186 194 192 204 194 215 161 196 203 211
234 233 222 229 228 229 240 233 223 189 207 220 179 117 139 154 181 168 158 162 161 160 157 158 162 164 161 156 158 152 153 152 165 166 181 191 158 235 140 177 185 213 208 203
235 238 233 233 234 236 249 256 269 254 253 248 223 149 251 182 194 182 169 167 161 160 157 158 160 163 157 153 149 138 142 141 151 165 195 204 177 182 197 189 161 205 219 216
227 224 228 236 237 241 265 309 282 268 265 257 212 149 202 169 202 183 166 154 156 152 152 153 154 153 153 155 149 144 140 143 147 155 163 190 234 181 176 122 127 220 216 219
245 229 225 233 236 247 255 258 268 268 269 260 240 194 149 172 194 165 149 146 153 146 144 145 146 144 150 153 148 143 139 139 145 155 155 152 255 24 30 32 62 259 197 224
232 234 226 236 236 227 235 241 245 243 237 250 249 210 153 165 159 149 146 148 150 144 143 145 146 149 155 154 147 140 139 142 146 149 151 151 158 114 24 337 319 332 20 47
215 221 218 220 235 232 221 242 252 264 280 265 284 73 140 131 129 138 138 140 145 144 145 146 148 152 156 154 149 141 140 143 149 151 151 136 133 181 207 285 350 16 15 46
222 219 210 211 223 243 232 232 255 263 260 235 189 147 136 142 142 142 139 138 144 146 147 150 154 157 156 154 148 142 139 142 147 149 144 135 130 108 46 75 40 34 20 23
259 248 213 199 212 230 250 251 255 263 289 286 216 186 175 162 150 147 145 146 144 147 150 153 156 155 152 150 143 140 139 144 147 150 157 149 144 142 118 70 57 43 41 31
246 255 232 209 206 221 223 243 257 268 267 274 279 62 120 142 166 152 150 147 147 150 148 148 148 145 147 149 150 150 147 149 151 149 141 133 140 150 142 113 84 66 55 50
232 248 244 226 210 223 230 230 234 243 258 279 276 144 134 158 172 149 143 139 145 144 143 146 145 143 148 153 153 152 154 155 156 150 142 142 138 131 124 108 85 78 80 72
225 243 243 236 216 208 228 234 237 236 231 247 262 149 139 166 157 144 139 142 147 141 140 140 141 145 149 146 143 148 156 156 156 153 149 148 145 134 117 99 88 82 81 77
246 238 245 242 227 209 217 227 236 244 240 235 228 174 164 158 147 137 136 140 145 139 134 134 135 139 140 136 139 146 149 148 149 148 148 146 143 137 127 116 105 92 86 78
240 238 246 260 265 248 226 220 227 236 250 255 232 208 186 156 150 139 141 145 144 140 138 137 140 140 139 141 146 146 140 135 133 139 145 145 139 132 122 113 106 96 85 81
224 253 248 251 257 255 243 229 227 231 237 245 248 230 150 133 127 127 137 147 148 150 152 150 148 145 146 148 153 146 142 134 132 138 136 130 129 128 123 116 105 94 85 79
212 227 246 248 247 252 243 233 231 235 235 238 237 213 148 148 130 133 139 151 156 158 158 154 154 152 151 153 149 146 143 137 136 131 125 127 129 127 126 122 115 106 96 89
224 221 236 249 251 246 245 241 234 237 242 237 231 193 157 138 124 125 138 147 151 154 155 155 157 153 148 145 140 137 141 140 139 133 129 129 132 129 120 111 109 105 102 98
212 215 233 240 242 242 245 233 230 223 231 238 223 149 117 123 125 123 122 126 139 146 144 150 152 149 143 143 138 139 139 138 139 139 137 133 134 131 129 124 118 114 110 104
208 202 230 237 242 240 228 238 241 218 213 214 194 142 141 149 160 117 108 116 114 124 125 133 138 137 135 137 137 139 138 136 140 139 133 128 126 130 131 127 121 115 115 114
204 204 222 237 242 247 243 222 228 224 183 108 82 88 98 76 68 103 111 105 105 112 112 115 117 121 123 128 131 135 134 134 133 131 128 124 122 123 124 121 122 126 125 120
207 207 214 233 242 237 322 224 202 79 68 76 76 82 85 91 93 94 97 104 112 118 119 119 114 114 119 126 132 133 128 124 123 124 127 127 129 134 132 129 130 137 139 136
215 218 215 231 231 53 43 62 75 84 80 80 85 91 101 107 104 99 91 93 102 111 119 121 122 120 119 120 125 130 120 122 127 128 130 130 129 123 131 141 149 157 161 161
204 204 210 176 137 97 76 71 67 71 79 83 91 101 111 112 111 105 99 96 99 105 111 117 122 122 121 121 117 114 119 125 132 135 137 135 136 131 122 125 137 148 154 161
193 190 203 164 124 110 96 86 80 77 83 87 89 96 102 107 114 117 113 108 102 103 106 114 121 127 130 128 122 124 129 135 140 143 144 143 145 143 128 105 63 81 70 69
282 180 204 179 119 125 106 90 86 85 86 91 97 96 105 109 113 113 111 109 106 104 109 121 128 130 134 134 130 131 138 143 149 154 160 164 164 154 147 136 105 56 69 78